CZ-3C DEB, 44526

Orbit data source: Space-Track

CZ-3C DEB, 44526 is space debris in HEO originally from a launch on Sun, 31 Oct 2010 UTC launched from the Xichang Space Center, China (XSC). Debris objects in space refer to the collection of defunct objects orbiting the Earth. Examples of debris include non-operational satellites, rocket bodies, and fragments generated from explosions, collisions, or faulty payload assembly.

Loading next visibility...
Identifier
44526, 2010-057BL
Orbit
HEO
Country
Flag of CNCN / PRC
Related business
Manufacturer
CALT
Mission
Spacecraft
Bus & Motor
Unknown
Mass
Unknown
Launch date (UTC)
2010-10-31 (15 years ago)
Launch vehicle
Unknown
Launch site
Xichang Space Center, China (XSC)
Object type
Payload
Rocket body
Debris
Shape & HBR
Unknown shape, 0.1 m
Radar Cross Section
Medium (>0.1 m² and <1 m²)

Expand to show TLE details & history
Last TLE update: 18 hours ago

TLE from 18 hours ago
0 CZ-3C DEB
1 44526U 10057BL  25309.73457505  .00000429  00000-0  37149-2 0  9990
2 44526  21.3818 177.0469 6981546 164.6915 238.5538  2.49186229 90681
Epoch: 2025-11-05T17:37Z
TLE epoch observation values (Epoch: 2025-11-05T17:37:47.284Z)
Latitude
-0.00001°
Longitude
-132.56861°
Altitude
29,693.096 km
Speed
2.181 km/s
True Right ascension
11h 48m 19s
True Declination
0° 00' 00"
Sunlit
Object was in daylight at epoch
Visualization orbit readout
Latitude
Unknown
Longitude
Unknown
Altitude
Unknown
Speed
Unknown
Apparent Right ascension
Unknown
Apparent Declination
Unknown
Sunlit
N/A
Visualization observer readout
Local Sidereal Time
07:39:21
Azimuth
Unknown
Elevation
Unknown
Doppler factor
Unknown
Orbital elements
Apogee altitude
32,655.796 km
Perigee altitude
560.108 km
Semi-major axis
22,986.089 km
Eccentricity
0.69815
Inclination
21.3818°
RAAN
177.0469°
Arg. of periapsis
164.6915°
True anomaly
195.32103°
Mean anomaly
238.5538°
Eccentric anomaly
215.3884°
Mean motion
0.6228 °/min
Orbital period
578.04 mins
BSTAR
0.0037149
Loading maneuver chart data...
Computing Atmospheric mass density...
Loading historical data...
Loading historical data...
Loading historical data...
Loading historical data...
Loading historical data...
Loading historical data...
Loading historical data...

Documentation

Showing up to 5 results
|